Change the Weather History Date:

Sunday, November 11, 2012

  Actual Average Record
Temperature  
Mean Temperature 30 °F -  
Max Temperature 42 °F 35 °F 66 °F (2005)
Min Temperature 17 °F 18 °F -6 °F (1986)
Degree Days  
Heating Degree Days 36    
Moisture  
Dew Point 19 °F    
Average Humidity 84    
Maximum Humidity 100    
Minimum Humidity 74    
Precipitation  
Precipitation 0.01 in - - ()
Sea Level Pressure  
Sea Level Pressure 29.73 in    
Wind  
Wind Speed 14 mph (West)    
Max Wind Speed 20 mph    
Max Gust Speed 25 mph    
Visibility 6 miles    
Events Snow    
Averages and records for this station are not official NWS values.
T = Trace of Precipitation, MM = Missing Value Source: NWS Daily Summary

Daily Weather History Graph

Daily Weather History Graph

Search for Another Location

Airport or City:

Trip Planner

Search our weather history database for the weather conditions in past years. The results will help you decide how hot, cold, wet, or windy it might be!

Date:

Astronomy

Nov. 11, 2012 Rise Set
Actual Time 7:18 AM CST 4:49 PM CST
Civil Twilight 6:45 AM CST 5:22 PM CST
Nautical Twilight 6:08 AM CST 5:59 PM CST
Astronomical Twilight 5:33 AM CST 6:34 PM CST
Moon 4:25 AM CST (11/11) 3:20 PM CST (11/11)
Length of Visible Light 10h 37m
Length of Day
9h 31m
Waning Crescent, 7% of the Moon is Illuminated
Nov 11
Waning Crescent
Nov 13
New
Nov 20
First Quarter
Nov 28
Full
Dec 6
Last Quarter

Hourly Weather History & Observations

Time (CST) Temp. Windchill Dew Point Humidity Pressure Visibility Wind Dir Wind Speed Gust Speed Precip Events Conditions
12:21 AM 42.8 °F 37.5 °F 41.0 °F 93% 29.42 in 5.0 mi WSW 9.2 mph - N/A   Overcast
12:49 AM 39.2 °F 30.5 °F 39.2 °F 100% 29.44 in 10.0 mi West 16.1 mph - N/A   Overcast
12:53 AM 39.9 °F 30.8 °F 37.9 °F 93% 29.48 in 10.0 mi West 18.4 mph - 0.01 in   Overcast
1:53 AM 34.0 °F 23.0 °F 32.0 °F 92% 29.53 in 10.0 mi West 18.4 mph - N/A   Overcast
2:53 AM 30.9 °F 19.8 °F 30.0 °F 96% 29.57 in 10.0 mi West 16.1 mph - N/A   Overcast
3:53 AM 30.0 °F 18.7 °F 28.0 °F 92% 29.59 in 8.0 mi West 16.1 mph 21.9 mph N/A   Overcast
4:53 AM 28.0 °F 15.7 °F 25.0 °F 88% 29.64 in 10.0 mi West 17.3 mph 25.3 mph N/A   Overcast
5:18 AM 26.6 °F 13.1 °F 24.8 °F 93% 29.61 in 10.0 mi West 19.6 mph - N/A   Overcast
5:53 AM 26.1 °F 14.5 °F 24.1 °F 92% 29.70 in 10.0 mi West 13.8 mph - N/A   Overcast
6:53 AM 25.0 °F 12.6 °F 21.9 °F 88% 29.69 in 10.0 mi West 15.0 mph 21.9 mph N/A   Overcast
7:53 AM 24.8 °F 11.9 °F 21.2 °F 86% 29.67 in 10.0 mi West 16.1 mph - N/A   Overcast
8:37 AM 24.8 °F 11.5 °F 19.4 °F 80% 29.69 in 10.0 mi West 17.3 mph 24.2 mph N/A   Overcast
8:53 AM 24.1 °F 12.0 °F 19.9 °F 84% 29.73 in 10.0 mi WNW 13.8 mph 21.9 mph N/A   Overcast
9:53 AM 23.0 °F 10.1 °F 19.0 °F 85% 29.77 in 10.0 mi West 15.0 mph - N/A   Overcast
10:53 AM 23.0 °F 10.1 °F 19.0 °F 85% 29.77 in 10.0 mi West 15.0 mph - N/A   Overcast
11:34 AM 23.0 °F 10.1 °F 17.6 °F 80% 29.72 in 8.0 mi West 15.0 mph - 0.00 in Snow Light Snow
11:53 AM 23.0 °F 10.6 °F 18.0 °F 81% 29.76 in 9.0 mi West 13.8 mph - 0.00 in   Overcast
12:25 PM 21.2 °F 8.3 °F 17.6 °F 86% 29.71 in 1.8 mi West 13.8 mph - 0.00 in Snow Light Snow
12:45 PM 21.2 °F 8.3 °F 17.6 °F 86% 29.72 in 2.5 mi West 13.8 mph - 0.00 in Snow Light Snow
12:53 PM 21.9 °F 9.2 °F 17.1 °F 82% 29.77 in 6.0 mi West 13.8 mph - 0.00 in Snow Light Snow
1:53 PM 21.9 °F 9.8 °F 16.0 °F 78% 29.78 in 10.0 mi West 12.7 mph - 0.00 in   Overcast
2:53 PM 21.0 °F 8.1 °F 15.1 °F 78% 29.79 in 5.0 mi West 13.8 mph - 0.00 in Snow Light Snow
3:53 PM 19.9 °F 5.7 °F 12.9 °F 74% 29.81 in 9.0 mi West 16.1 mph - 0.00 in Snow Light Snow
4:19 PM 19.4 °F 7.2 °F 15.8 °F 86% 29.75 in 1.8 mi West 11.5 mph - 0.00 in Snow Light Snow
4:53 PM 19.9 °F 6.2 °F 14.0 °F 78% 29.82 in 2.0 mi West 15.0 mph - 0.00 in Snow Light Snow
5:01 PM 19.4 °F 5.0 °F 12.2 °F 74% 29.75 in 6.0 mi West 16.1 mph - 0.00 in Snow Light Snow
5:38 PM 19.4 °F 7.2 °F 14.0 °F 80% 29.76 in 2.0 mi West 11.5 mph - 0.00 in Snow Light Snow
5:53 PM 19.0 °F 8.2 °F 15.1 °F 85% 29.84 in 2.5 mi West 9.2 mph - 0.00 in Snow Light Snow
6:03 PM 19.4 °F 6.6 °F 14.0 °F 80% 29.77 in 1.8 mi West 12.7 mph - 0.00 in Snow Light Snow
6:11 PM 19.4 °F 7.2 °F 14.0 °F 80% 29.77 in 3.0 mi West 11.5 mph - 0.00 in Snow Light Snow
6:26 PM 19.4 °F 9.5 °F 15.8 °F 86% 29.77 in 2.5 mi West 8.1 mph - 0.00 in Snow Light Snow
6:44 PM 19.4 °F 7.2 °F 14.0 °F 80% 29.77 in 5.0 mi West 11.5 mph - 0.00 in Snow Light Snow
6:53 PM 19.0 °F 7.5 °F 14.0 °F 81% 29.85 in 7.0 mi West 10.4 mph - 0.00 in Snow Light Snow
7:53 PM 19.0 °F 8.2 °F 14.0 °F 81% 29.84 in 8.0 mi WSW 9.2 mph - 0.00 in Snow Light Snow
8:53 PM 18.0 °F 5.4 °F 12.9 °F 81% 29.84 in 7.0 mi WSW 11.5 mph - 0.00 in Snow Light Snow
9:18 PM 17.6 °F 4.3 °F 14.0 °F 86% 29.77 in 2.5 mi WSW 12.7 mph - 0.00 in Snow Light Snow
9:28 PM 17.6 °F 5.0 °F 14.0 °F 86% 29.77 in 4.0 mi WSW 11.5 mph - 0.00 in Snow Light Snow
9:47 PM 17.6 °F 5.7 °F 14.0 °F 86% 29.77 in 1.8 mi WSW 10.4 mph - 0.00 in Snow Light Snow
9:53 PM 18.0 °F 6.9 °F 14.0 °F 84% 29.85 in 2.0 mi WSW 9.2 mph - 0.00 in Snow Light Snow
10:26 PM 17.6 °F 5.7 °F 12.2 °F 79% 29.77 in 8.0 mi WSW 10.4 mph - 0.00 in Snow Light Snow
10:53 PM 18.0 °F 6.1 °F 12.9 °F 81% 29.85 in 2.5 mi WSW 10.4 mph - 0.00 in Snow Light Snow
11:53 PM 17.1 °F 2.5 °F 12.0 °F 81% 29.85 in 3.0 mi West 15.0 mph - 0.00 in Snow Light Snow